This demonstration page uses our WeatherBlox Daily Observations layout. Learn more.

41.55636, -103.73856

Hourly Observations for May 1, 2015

Temp ( °F °C ) Dew Point ( °F °C ) Humidity (%) Winds ( mph kmh ) Pressure ( in mb ) Visibility ( mi km ) Precip ( " mm )
12:53 am 00:53 Mostly Cloudy 50 10 46 8 88 88 NW 5 7 30.09 1019 10 16.09344 0 0
1:53 am 01:53 Mostly Cloudy with Light Rain 50 10 45 7 82 82 NE 7 11 30.09 1019 10 16.09344 0.01 0.254
2:53 am 02:53 Mostly Cloudy 50 10 45 7 82 82 Calm 30.09 1019 10 16.09344 0.001 0.001
3:53 am 03:53 Mostly Cloudy 48 9 43 6 82 82 SSW 5 7 30.09 1019 10 16.09344 0 0
4:53 am 04:53 Cloudy 48 9 43 6 82 82 N 3 6 30.09 1019 10 16.09344 0 0
5:53 am 05:53 Cloudy 46 8 43 6 87 87 N 3 6 30.12 1020 10 16.09344 0 0
6:53 am 06:53 Mostly Cloudy 48 9 45 7 87 87 NNE 3 6 30.09 1019 10 16.09344 0 0
7:53 am 07:53 Cloudy 54 12 45 7 72 72 Calm 30.06 1018 10 16.09344 0 0
8:53 am 08:53 Sunny 55 13 43 6 63 63 Calm 30.03 1017 10 16.09344 0 0
9:53 am 09:53 Sunny 59 15 43 6 55 55 N 3 6 30 1016 10 16.09344 0 0
10:53 am 10:53 Mostly Sunny 63 17 43 6 49 49 S 8 13 29.97 1015 10 16.09344 0 0
11:53 am 11:53 Sunny 64 18 43 6 46 46 S 3 6 29.97 1015 10 16.09344 0 0
12:53 pm 12:53 Sunny 68 20 46 8 46 46 N 5 7 29.94 1014 10 16.09344 0 0
1:53 pm 13:53 Mostly Cloudy 68 20 46 8 46 46 N 6 9 29.88 1012 10 16.09344 0 0
2:53 pm 14:53 Partly Cloudy 70 21 46 8 43 43 E 6 9 29.83 1010 10 16.09344 0 0
3:53 pm 15:53 Mostly Sunny 70 21 45 7 40 40 SE 9 15 29.8 1009 10 16.09344 0 0
4:53 pm 16:53 Sunny 72 22 46 8 41 41 SE 10 17 29.8 1009 10 16.09344 0 0
5:53 pm 17:53 Mostly Sunny 70 21 46 8 43 43 NNW 16 26 29.8 1009 10 16.09344 0 0
6:53 pm 18:53 Sunny 68 20 50 10 53 53 SSE 6 9 29.77 1008 10 16.09344 0 0
7:53 pm 19:53 Clear 63 17 48 9 59 59 SW 7 11 29.83 1010 10 16.09344 0 0
8:53 pm 20:53 Clear 61 16 46 8 59 59 SSE 5 7 29.85 1011 10 16.09344 0 0
9:53 pm 21:53 Clear 59 15 46 8 63 63 SSE 10 17 29.91 1013 10 16.09344 0 0
10:53 pm 22:53 Clear 57 14 46 8 67 67 SE 8 13 29.88 1012 10 16.09344 0 0
11:53 pm 23:53 Clear 52 11 45 7 77 77 E 8 13 29.94 1014 10 16.09344 0 0

Powered by AerisWeather